Weather in Voronezh

Russia / Voronezh Oblast     51°39′38″N   39°12′00″E
temp.,
°C
wind,
m/s
gust,
m/s
humid.,
%
clouds,
%
prec.,
mm/h
press.,
hPa
HPBL,
m
13 august, sat
sat1300:00+23e310653 0.3 1020330
03:00+21ne376684 0.3 1020195
06:00+20ne4871100 0.2 1020154
09:00+23ene4866100 0.9 1019201
12:00+23ene3861100 0.2 1020273
15:00+26ene4849100 0.2 1018357
18:00+25n2249100 0.0 101849
21:00+24n2251100 0.1 101848
14 august, sun
sun1400:00+24ese3756100 0.1 1018202
03:00+23e375799 0.2 1017167
06:00+23e31161100 0.0 1017414
09:00+24ene595595 0.0 1017465
12:00+28e454292 0.0 1017977
15:00+30ene453758 0.0 10161559
18:00+29ne464266 0.0 1015769
21:00+24ne4116064 0.2 1016359
15 august, mon
mon1500:00+22ene4115767 0.1 1016345
03:00+21ene39536 0.1 1016253
06:00+20ene3105128 0.0 1017254
09:00+26e59415 0.0 1016541
12:00+31e672839 0.0 10161738
15:00+33e56247 0.0 10152294
18:00+32ene47275 0.0 10151669
21:00+27e513345 0.0 1016662
16 august, tue
tue1600:00+24ese51335100 0.0 1017666
03:00+22e4123975 0.0 1018524
06:00+20e41245100 0.0 1019395
09:00+24e5836100 0.0 1018578
12:00+28e5731100 0.0 10171414
15:00+31e5725100 0.0 10161902
18:00+30e3726100 0.0 10151144
21:00+28ese41132100 0.0 1015540
17 august, wed
wed1700:00+27ese51030100 0.0 1015468
03:00+25e51330100 0.0 1015483
06:00+23e41036100 0.0 1015442
09:00+26ene473353 0.0 1015481
12:00+27ene583272 0.0 1015733
15:00+33ene7112124 0.0 10122068
18:00+32ene61124100 0.0 10111424
21:00+28ene7152815 0.0 1012905